Location: Kawakawa
(35.3830°S, 174.0670°E)
Time: 14:29:26
(UTC+12:00)

ISS - Visible Passes

Search period start: 01 July 2022 00:00
Search period end: 11 July 2022 00:00
Orbit: 414 x 420 km, 51.6° (Epoch: 30 June)

Date Brightness Start Highest point End Pass type
(mag) Time Alt. Az. Time Alt. Az. Time Alt. Az.
03 Jul -1.1 18:59:20 10° SSW 18:59:35 11° S 18:59:35 11° S visible
04 Jul -1.5 18:11:57 10° S 18:13:00 11° SSE 18:13:41 11° SE visible
05 Jul -2.3 18:58:55 10° SSW 19:00:52 26° S 19:00:52 26° S visible
06 Jul -2.3 18:10:58 10° SSW 18:13:41 22° SSE 18:15:21 16° ESE visible
06 Jul -0.9 19:47:22 10° WSW 19:48:20 17° WSW 19:48:20 17° WSW visible
07 Jul -3.6 18:58:57 10° SW 19:02:21 74° NW 19:03:08 48° NNE visible
08 Jul -3.7 18:10:42 10° SW 18:14:04 57° SE 18:17:24 10° ENE visible
08 Jul -0.5 19:49:15 10° WNW 19:50:25 11° NW 19:51:26 10° NW visible
09 Jul -1.1 18:59:40 10° WSW 19:02:19 21° NW 19:04:56 10° N visible
10 Jul -2.2 18:10:55 10° WSW 18:14:08 40° NW 18:17:19 10° NNE visible
